This demonstration page uses our WeatherBlox Daily Observations layout. Learn more.

Left ArrowRight Arrow

40.92501, -98.34201

Hourly Observations for May 23, 2020

Temp ( °F °C ) Dew Point ( °F °C ) Humidity (%) Winds ( mph kmh ) Pressure ( in mb ) Visibility ( mi km ) Precip ( " mm )
12:28 am 00:28 Cloudy 61 16.1 57 13.9 87 87 N 9 15 29.80 1009 10 16 0.00 0.00
12:53 am 00:53 Mostly Cloudy 61 16.1 57 13.9 87 87 N 7 11 29.82 1010 10 16 0.00 0.00
1:53 am 01:53 Mostly Cloudy 61 16.1 57 13.9 87 87 N 7 11 29.83 1010 10 16 0.00 0.00
2:53 am 02:53 Clear 59 15 56 13.3 90 90 NE 7 11 29.80 1009 10 16 0.00 0.00
3:53 am 03:53 Clear with Mist and Fog 57 13.9 55 12.8 93 93 NNE 3 6 29.80 1009 6 10 0.00 0.00
4:53 am 04:53 Clear with Mist and Fog 57 13.9 55 12.8 93 93 ENE 3 6 29.81 1009 6 10 0.00 0.00
5:23 am 05:23 Clear with Mist and Fog 55 12.8 53 11.7 93 93 Calm 29.81 1009 2 3 0.00 0.00
5:40 am 05:40 Mostly Clear with Mist and Fog 55 12.8 52 11.1 90 90 Calm 29.81 1009 2 3 0.00 0.00
5:53 am 05:53 Mostly Clear with Mist and Fog 55 12.8 54 12.2 96 96 N 3 6 29.81 1010 2 3 0.00 0.00
5:59 am 05:59 Mostly Cloudy with Mist and Fog 56 13.3 54 12.2 93 93 N 3 6 29.80 1009 1 1 0.00 0.00
6:04 am 06:04 Mostly Cloudy with Fog 55 12.8 53 11.7 93 93 NNE 5 7 29.80 1009 0 0 0.00 0.00
6:28 am 06:28 Cloudy with Mist and Fog 56 13.3 54 12.2 93 93 Calm 29.83 1010 1 2 0.00 0.00
6:53 am 06:53 Cloudy with Fog 57 13.9 55 12.8 93 93 ENE 5 7 29.83 1010 1 1 0.00 0.00
7:00 am 07:00 Cloudy with Fog 58 14.4 56 13.3 93 93 ENE 5 7 29.83 1010 N/A 0.00 0.00
7:08 am 07:08 Mostly Cloudy with Fog 58 14.4 56 13.3 93 93 E 3 6 29.83 1010 N/A 0.00 0.00
7:53 am 07:53 Mostly Cloudy with Fog 58 14.4 56 13.3 93 93 Calm 29.86 1011 N/A 0.00 0.00
8:36 am 08:36 Mostly Cloudy with Fog 58 14.4 56 13.3 93 93 Calm 29.86 1011 0 0 0.00 0.00
8:48 am 08:48 Mostly Cloudy with Fog 57 14 57 14 100 100 Calm 29.87 1012 0 0 0.00 0.00
8:53 am 08:53 Mostly Cloudy with Fog 59 15 57 13.9 93 93 Calm 29.89 1012 0 0 0.00 0.00
9:05 am 09:05 Cloudy with Fog 59 15 57 13.9 93 93 SSW 3 6 29.86 1011 0 0 0.00 0.00
9:13 am 09:13 Cloudy with Fog 59 15 57 13.9 93 93 Calm 29.86 1011 1 1 0.00 0.00
9:21 am 09:21 Cloudy with Fog 59 15 57 13.9 93 93 W 3 6 29.87 1012 0 0 0.00 0.00
9:31 am 09:31 Cloudy with Mist and Fog 59 15 57 13.9 93 93 VRB 3 6 29.86 1011 1 1 0.00 0.00
9:38 am 09:38 Cloudy with Mist and Fog 59 15 57 13.9 93 93 Calm 29.86 1011 2 3 0.00 0.00
9:43 am 09:43 Cloudy with Mist and Fog 59 15 57 13.9 93 93 Calm 29.86 1011 3 5 0.00 0.00
9:53 am 09:53 Cloudy with Mist and Fog 60 15.6 57 13.9 90 90 Calm 29.89 1012 3 5 0.00 0.00
10:53 am 10:53 Cloudy with Mist and Fog 62 16.7 59 15 90 90 ENE 7 11 29.87 1012 3 5 0.00 0.00
11:19 am 11:19 Cloudy with Mist and Fog 62 16.7 59 15 90 90 E 7 11 29.83 1010 5 8 0.00 0.00
11:53 am 11:53 Mostly Cloudy 64 17.8 61 16.1 90 90 E 9 15 29.84 1011 7 11 0.00 0.00
12:27 pm 12:27 Mostly Sunny 68 20 62 16.7 81 81 E 12 19 29.78 1008 9 14 0.00 0.00
12:53 pm 12:53 Mostly Sunny 69 20.6 62 16.7 78 78 E 12 19 29.82 1010 10 16 0.00 0.00
1:53 pm 13:53 Mostly Sunny 72 22.2 62 16.7 71 71 E 12 19 29.80 1009 10 16 0.00 0.00
2:53 pm 14:53 Cloudy 74 23.3 62 16.7 67 67 E 16 26 29.78 1009 10 16 0.00 0.00
3:53 pm 15:53 Sunny 75 23.9 63 17.2 66 66 E 16 26 29.77 1008 10 16 0.00 0.00
4:53 pm 16:53 Partly Cloudy 75 23.9 62 16.7 64 64 ESE 15 24 29.76 1008 10 16 0.00 0.00
5:53 pm 17:53 Cloudy 74 23.3 62 16.7 67 67 ESE 13 20 29.76 1008 10 16 0.00 0.00
6:53 pm 18:53 Mostly Cloudy 74 23.3 62 16.7 67 67 ESE 12 19 29.74 1007 10 16 0.00 0.00
7:53 pm 19:53 Mostly Sunny 73 22.8 62 16.7 69 69 E 14 22 29.72 1006 10 16 0.00 0.00
8:53 pm 20:53 Mostly Cloudy 71 21.7 63 17.2 76 76 E 12 19 29.72 1006 10 16 0.00 0.00
9:53 pm 21:53 Cloudy 71 21.7 63 17.2 76 76 E 14 22 29.72 1007 10 16 0.00 0.00
10:53 pm 22:53 Mostly Cloudy 70 21.1 63 17.2 79 79 ESE 16 26 29.71 1006 10 16 0.00 0.00
11:53 pm 23:53 Clear 70 21.1 63 17.2 79 79 ESE 14 22 29.71 1006 10 16 0.00 0.00

Powered by AerisWeather